Vertical_Velocity
-2 -1 1 1 4 0 3 2 1 1 4 12 24 14 1 -0 6 14 -1 3 0 -3 -2 8 -10 -4 -1 -9 3 -16 4 -1 -2 -14 0 3 3 -3 0 1 -3 1 1 -20
-1 -2 1 1 4 -0 4 2 0 2 3 5 6 4 -3 -2 3 7 6 1 7 1 -4 -17 -4 -6 -9 3 -7 -8 0 12 -3 11 9 6 5 4 4 2 1 -4 -2 -7
1 -3 2 2 3 0 5 3 1 1 1 6 7 -1 2 3 -3 10 2 -2 5 -3 3 0 -17 -1 5 11 9 1 10 3 -6 -22 -21 -19 -8 -3 3 6 5 -5 -11 -5
1 -2 1 3 2 1 4 1 -0 0 -3 1 4 2 0 -2 4 -3 1 13 6 3 -3 -3 -3 3 6 5 12 -1 -3 -2 1 1 4 1 -3 -4 -4 -7 -1 -4 -7 -7
2 -2 0 4 0 2 1 2 3 1 3 6 1 2 3 1 4 -1 -1 -7 -2 -4 -1 -7 -26 -9 -1 -23 -12 9 9 2 4 -2 -3 2 4 5 6 8 2 6 4 -2
2 -2 0 2 0 3 0 3 3 1 4 1 4 3 -1 9 -1 -1 -4 7 5 1 2 4 10 13 6 -9 -3 -11 -4 4 -3 -1 2 3 1 -9 0 4 4 2 -4 6
1 -1 -1 2 0 3 -0 2 3 1 1 1 1 3 -6 -2 -3 -3 -5 4 9 2 7 3 4 10 6 4 3 7 -3 2 4 -1 2 -3 -3 1 -0 2 3 2 3 -0
1 -0 -2 3 0 3 -0 1 3 0 -0 -0 -0 2 -0 6 3 0 -4 -0 -3 6 -1 -6 -2 6 -0 4 2 1 6 6 -1 -1 -1 0 1 -4 -5 -3 -3 -1 -0 0
-0 0 -1 3 1 3 0 1 3 -0 2 -1 1 -1 0 4 4 -1 -4 4 3 2 -4 -6 -3 -6 -0 0 2 5 3 2 1 -0 -2 -3 1 1 3 -1 -4 0 3 1
2 0 -1 2 1 3 1 1 3 1 1 1 1 -1 -2 2 7 3 1 1 4 4 0 5 -4 -1 -5 -1 1 -2 -2 2 -1 -1 -3 -4 -2 -1 1 4 -5 0 0 0
2 -0 0 1 2 3 0 1 3 3 1 1 2 2 1 -1 -1 5 -0 4 1 4 2 3 1 1 -1 -2 -2 -4 -2 -2 -5 0 -1 -7 1 4 -1 0 -1 2 1 -0
2 1 1 1 2 3 -0 1 3 1 1 1 2 0 0 1 -1 1 3 -1 3 -1 1 -0 0 -2 -1 -1 -2 0 -4 -1 -3 -1 3 1 0 2 2 0 -0 -0 0 -0
1 2 -1 1 3 2 2 1 2 3 3 1 1 1 1 1 -1 -1 -0 3 3 2 1 0 -1 -1 -1 -2 -2 1 0 1 1 3 2 1 0 -1 0 1 1 2 2 1
2 3 -0 -1 3 3 1 1 2 1 1 2 -3 0 -1 -0 -0 0 1 1 -0 2 2 0 -0 -0 -1 -1 -1 -2 -1 -1 -1 -3 -1 -1 1 2 1 -0 -1 -1 -1 -1
1 2 0 1 1 2 2 2 1 2 -3 -2 -3 2 3 2 2 1 1 1 0 -1 2 -1 -1 0 3 -0 -1 -2 -2 -2 -0 -0 2 1 3 1 1 0 -1 -0 -1 -2
-0 1 2 3 1 1 2 -1 1 0 -1 6 -1 1 -2 -1 -1 1 1 2 2 1 1 -0 -0 -1 -1 -2 -3 -1 -1 -2 -1 -1 -0 -2 -0 -1 -0 0 -1 -0 -0 -0
-0 1 3 3 2 2 1 2 -1 -0 2 3 1 -5 -4 -0 -0 -0 -2 1 0 0 0 -1 0 3 3 -1 2 -5 -2 0 -3 1 -0 -2 1 1 0 2 0 -2 -2 -1
2 2 4 5 0 3 -1 2 2 1 0 -2 -2 -1 -1 2 1 -1 -2 -1 2 -1 -2 -3 0 2 -1 -4 -4 -6 2 1 0 1 -2 1 1 1 1 -1 -2 -1 -1 -1
4 3 5 7 1 -0 1 2 2 2 0 -2 -2 -2 -3 1 2 1 3 -1 -1 -2 -3 1 1 -0 -3 -1 -3 -3 1 1 2 0 -1 -0 1 1 1 0 0 -1 -1 -1
2 5 1 -3 -2 2 1 2 1 -1 -1 -2 -2 1 -3 -1 0 -0 2 3 -1 1 -1 -1 -2 -10 3 0 -1 -7 -1 -2 -2 -1 1 1 -0 -1 -0 -1 -1 -2 -3 -3
-1 -3 3 1 4 2 -0 1 -1 -3 -3 -3 -3 -1 0 2 -0 0 -3 -0 -3 -3 -2 -2 0 -7 -2 -0 2 -1 -2 -1 -0 0 1 1 2 1 2 0 -1 -2 -1 0
3 4 10 1 2 -1 -1 2 -2 -4 -2 -3 1 0 -2 -1 -3 -2 1 -1 -2 -2 0 -3 -4 -5 -2 -0 2 3 4 4 2 0 -0 -0 1 -0 -2 -1 -0 -1 -0 -1
15 9 6 -0 -5 1 -2 -8 -6 -10 -5 -3 -3 -2 -4 1 -0 1 -2 -2 -3 -2 -2 -7 -3 -2 -1 -1 1 2 1 -0 -0 0 1 0 -1 -1 -2 -3 -4 -3 -4 -4
10 2 2 -6 -6 1 -6 -6 -4 -5 -1 0 2 3 -5 -1 -0 -1 0 -1 0 -2 -4 -6 -3 -1 -1 -0 -0 -2 -2 -1 -0 0 1 1 -0 -3 -3 -3 -3 -2 -3 -3
2 1 -3 -3 -0 0 -0 -1 -1 0 0 1 -2 3 2 -0 -2 -2 -2 -0 -0 -2 -4 -2 2 2 2 1 0 2 1 1 1 1 -1 -4 -5 -5 -4 -3 -1 -2 -3 -2
4 -1 0 -3 -1 -1 -2 -1 0 4 3 1 3 -3 -1 -1 -1 -2 -1 -1 -4 -1 1 0 1 2 2 2 2 2 1 -1 -2 -3 -3 -2 -1 -0 1 1 0 -4 -1 -1
5 -2 -0 -3 -2 -1 1 2 4 4 1 -1 -2 -1 -2 -1 -1 -3 -2 -2 -3 -1 0 1 4 4 2 0 -1 -2 -1 -2 -1 -0 0 0 -1 -3 -1 -2 -6 -3 -3 -2
Height
2990 2988 2987 2987 2987 2986 2985 2985 2985 2983 2981 2979 2975 2971 2968 2969 2969 2970 2972 2976 2981 2984 2992 2997 3003 3008 3014 3020 3027 3035 3043 3046 3052 3053 3060 3064 3067 3069 3073 3074 3077 3077 3077 3073
2985 2984 2983 2983 2983 2983 2983 2983 2983 2981 2980 2977 2973 2970 2968 2969 2969 2970 2973 2976 2981 2987 2993 2999 3006 3010 3014 3019 3026 3032 3039 3043 3049 3056 3060 3059 3061 3064 3068 3071 3073 3072 3075 3073
2979 2979 2978 2978 2978 2979 2980 2981 2981 2980 2977 2975 2973 2970 2969 2969 2970 2971 2974 2978 2982 2988 2995 2998 3004 3009 3014 3020 3029 3035 3039 3040 3042 3044 3049 3054 3057 3059 3062 3067 3067 3069 3068 3070
2974 2974 2973 2974 2974 2975 2977 2977 2978 2978 2976 2974 2972 2972 2969 2969 2971 2973 2977 2981 2984 2987 2993 2999 3004 3007 3013 3021 3028 3032 3038 3040 3041 3042 3045 3048 3050 3052 3057 3059 3062 3064 3064 3066
2968 2969 2969 2969 2971 2971 2973 2974 2975 2975 2974 2972 2973 2973 2971 2970 2972 2976 2980 2982 2986 2988 2993 2997 3002 3007 3011 3015 3025 3031 3034 3036 3037 3038 3042 3044 3046 3048 3051 3054 3056 3059 3059 3061
2962 2964 2965 2964 2967 2968 2969 2970 2972 2974 2972 2973 2974 2974 2973 2974 2976 2979 2981 2985 2988 2992 2997 3001 3005 3010 3014 3017 3023 3027 3031 3033 3035 3039 3041 3043 3044 3042 3044 3046 3048 3051 3052 3055
2957 2959 2960 2960 2962 2964 2966 2967 2970 2971 2972 2972 2974 2976 2976 2977 2977 2978 2981 2984 2989 2993 2997 3002 3007 3012 3017 3021 3025 3027 3029 3032 3034 3036 3039 3043 3036 3036 3038 3041 3043 3045 3046 3047
2951 2953 2955 2955 2958 2960 2962 2964 2967 2969 2970 2971 2974 2976 2977 2978 2979 2978 2981 2985 2990 2992 2998 3002 3007 3012 3015 3018 3021 3024 3026 3028 3030 3032 3033 3033 3032 3032 3033 3035 3038 3039 3039 3041
2946 2948 2951 2951 2954 2956 2959 2961 2964 2967 2970 2971 2973 2975 2976 2979 2980 2981 2983 2988 2991 2994 2999 3002 3006 3009 3012 3016 3018 3020 3021 3024 3027 3028 3029 3030 3027 3028 3031 3032 3034 3034 3036 3038
2940 2943 2946 2947 2950 2952 2956 2958 2961 2965 2968 2970 2972 2974 2977 2978 2981 2983 2985 2989 2992 2997 2999 3003 3006 3007 3010 3011 3012 3014 3018 3020 3023 3024 3027 3026 3025 3026 3028 3033 3034 3031 3033 3035
2935 2939 2942 2943 2946 2949 2952 2956 2958 2962 2966 2969 2970 2973 2976 2979 2981 2983 2986 2990 2992 2995 2998 3001 3001 3003 3006 3007 3009 3010 3013 3017 3019 3023 3026 3025 3023 3025 3027 3028 3027 3029 3030 3032
2929 2934 2937 2939 2942 2946 2949 2953 2955 2959 2964 2967 2969 2972 2975 2977 2980 2983 2984 2987 2989 2993 2995 2997 2998 3000 3001 3003 3005 3007 3012 3013 3014 3017 3017 3017 3018 3020 3022 3023 3025 3026 3028 3028
2925 2929 2934 2936 2938 2942 2946 2950 2953 2956 2960 2964 2966 2968 2972 2975 2978 2981 2984 2986 2988 2990 2992 2995 2996 2998 3000 3000 3002 3005 3007 3008 3010 3013 3013 3014 3016 3017 3019 3020 3021 3022 3022 3022
2920 2924 2929 2932 2934 2938 2942 2946 2950 2953 2957 2959 2962 2964 2968 2972 2974 2977 2981 2984 2986 2989 2990 2992 2994 2996 2998 2999 3001 3003 3006 3007 3007 3009 3010 3012 3012 3014 3015 3016 3017 3018 3017 3016
2916 2919 2925 2928 2931 2935 2938 2942 2945 2949 2955 2955 2958 2961 2964 2967 2970 2974 2977 2980 2983 2986 2988 2989 2992 2993 2996 2996 2998 2999 3002 3003 3003 3004 3006 3007 3010 3010 3011 3012 3012 3012 3011 3010
2912 2916 2920 2924 2928 2931 2934 2938 2941 2944 2947 2952 2955 2957 2959 2962 2966 2970 2973 2976 2979 2981 2983 2985 2987 2989 2993 2992 2992 2994 2995 2996 2996 2998 3000 3002 3004 3005 3006 3006 3007 3006 3006 3004
2908 2912 2916 2920 2924 2928 2931 2935 2937 2940 2944 2948 2952 2954 2954 2956 2960 2965 2969 2971 2974 2977 2978 2980 2982 2985 2986 2985 2986 2989 2990 2991 2992 2993 2995 2997 2998 2999 3000 3001 3001 3001 3000 3000
2904 2908 2913 2917 2920 2924 2927 2930 2933 2936 2940 2944 2948 2946 2950 2952 2955 2959 2963 2966 2969 2971 2973 2975 2977 2979 2979 2978 2980 2984 2984 2984 2986 2989 2991 2993 2995 2996 2996 2996 2996 2996 2996 2995
2900 2905 2909 2913 2917 2920 2923 2927 2931 2933 2939 2939 2939 2941 2944 2948 2950 2955 2959 2962 2965 2967 2968 2970 2973 2970 2970 2972 2975 2976 2976 2977 2979 2983 2986 2988 2989 2990 2990 2991 2991 2991 2990 2989
2895 2901 2904 2907 2912 2917 2921 2923 2927 2930 2931 2934 2935 2937 2940 2945 2946 2950 2957 2958 2961 2961 2963 2965 2963 2961 2965 2968 2970 2973 2974 2975 2978 2980 2982 2983 2984 2985 2986 2986 2986 2985 2983 2981
2887 2893 2900 2905 2909 2914 2918 2919 2922 2925 2926 2927 2929 2933 2937 2941 2944 2948 2952 2954 2957 2957 2958 2960 2955 2950 2954 2959 2962 2966 2971 2973 2975 2976 2977 2979 2980 2981 2981 2980 2980 2978 2976 2974
2881 2889 2895 2901 2906 2910 2914 2914 2916 2917 2920 2920 2921 2926 2933 2937 2942 2946 2949 2951 2952 2952 2952 2953 2947 2945 2948 2949 2952 2958 2964 2968 2970 2972 2974 2975 2976 2976 2976 2974 2973 2971 2968 2965
2876 2882 2888 2894 2899 2901 2901 2900 2904 2909 2910 2913 2916 2922 2929 2935 2940 2943 2945 2945 2946 2947 2947 2944 2941 2942 2945 2948 2951 2956 2960 2964 2966 2968 2969 2970 2971 2970 2969 2967 2965 2963 2960 2958
2871 2875 2880 2886 2886 2886 2887 2894 2900 2904 2908 2912 2915 2920 2926 2929 2935 2939 2940 2941 2942 2941 2939 2935 2937 2940 2944 2948 2951 2955 2958 2961 2963 2965 2966 2966 2966 2964 2962 2960 2957 2955 2952 2950
2868 2870 2872 2874 2875 2879 2883 2889 2895 2900 2905 2909 2913 2920 2924 2928 2933 2934 2936 2936 2933 2928 2926 2929 2933 2937 2942 2946 2950 2953 2956 2958 2960 2961 2960 2959 2958 2957 2955 2952 2950 2947 2944 2942
2863 2865 2866 2868 2874 2878 2882 2886 2891 2896 2900 2906 2912 2918 2921 2923 2926 2926 2927 2927 2923 2923 2924 2927 2931 2936 2941 2945 2948 2950 2953 2954 2955 2954 2953 2952 2950 2949 2948 2945 2942 2939 2937 2935
2858 2860 2863 2868 2872 2876 2882 2885 2889 2893 2898 2901 2906 2911 2913 2916 2917 2918 2919 2919 2921 2922 2925 2928 2933 2937 2941 2944 2946 2948 2949 2949 2948 2947 2946 2945 2943 2942 2940 2938 2934 2932 2929 2926